Regional Weather Roundup
Issued by NWS

Home | Current Version | Previous Version | Graphics & Text | Print | Product List | Glossary On
Versions: 1 2 3 4 5 6 7 8 9 10 11 12 13 14 15 16 17 18 19 20 21 22 23 24 25 26 27 28 29 30 31 32 33 34 35 36 37 38 39 40 41 42 43 44 45 46 47 48 49 50
000
ASUS43 KLOT 210706
RWRIL

ILLINOIS REGIONAL WEATHER ROUNDUP
NATIONAL WEATHER SERVICE CHICAGO/ROMEOVILLE IL
200 AM CDT TUE OCT 21 2014

NOTE: "FAIR" INDICATES FEW OR NO CLOUDS BELOW 12,000 FEET WITH NO
SIGNIFICANT WEATHER AND/OR OBSTRUCTIONS TO VISIBILITY.

* THESE STATIONS ARE NOT UNDER NWS QUALITY CONTROL. THEY ALSO MAY NOT
  REPORT WEATHER SUCH AS PRECIPITATION OR FOG.

ILZ001-002-007-009-015-016-024-210800-
NORTHWEST ILLINOIS

CITY           SKY/WX    TMP DP  RH WIND       PRES   REMARKS
MOLINE         CLEAR     40  38  93 CALM      30.05R
STERLING*      CLEAR     43  37  81 W5        30.05R
SAVANNA*       CLEAR     42  39  89 CALM      30.05S
$$

ILZ003-004-008-010-011-017-018-210800-
NORTH CENTRAL ILLINOIS

CITY           SKY/WX    TMP DP  RH WIND       PRES   REMARKS
ROCKFORD       CLOUDY    47  41  80 NW6       30.06R
FREEPORT*      CLEAR     42  39  89 N6        30.07R
ROCHELLE*      CLOUDY    46  42  85 CALM      30.04R
DE KALB*       CLOUDY    46  41  82 NW3       30.04R
PERU*          CLOUDY    45  41  87 NW6       30.04R
$$

ILZ005-006-012>014-019>023-210800-
NORTHEAST ILLINOIS

CITY           SKY/WX    TMP DP  RH WIND       PRES   REMARKS
CHICAGO-OHARE  CLOUDY    51  43  74 N6        30.01R
CHICAGO-MIDWAY CLOUDY    53  45  74 N7        30.01R
AURORA         CLOUDY    49  41  74 N5        30.03R
LANSING*       CLOUDY    52  44  74 N6        30.00S
JOLIET*        CLOUDY    48  42  78 CALM      30.02R
WAUKEGAN       CLOUDY    49  40  71 N6        30.01R
DUPAGE AIRPORT CLOUDY    51  43  74 N5        30.02R
KANKAKEE*      CLOUDY    50  46  85 NW3       30.02R
WHEELING       CLOUDY    52  43  71 N3        30.03R
MORRIS*        CLOUDY    48  43  84 CALM      30.01S
ROMEOVILLE*    CLOUDY    50  42  72 N5        30.02R
NORTHERLY ISL    N/A     52  44  74 NW12        N/A
$$

LMZ740>746-210800-
SOUTHERN LAKE MICHIGAN

STATION/POSITION SKY/WX   TEMP    WIND        PRES    VSBY  WAVE
                          AIR SEA DIR/SP/G                  HT/PER
                          (F)     (DEG/KT/KT) (MB)    (MI)  (FT/S)
SOUTHERN BUOY              51 54  350/ 17/ 21 1015.6R         4/ 6
WAUKEGAN HARBOR            51     340/  8/ 12   N/A
HARRISON CRIB              52     350/ 17/ 19   N/A
BURNHAM HARBOR             52     330/  9/ 15   N/A
CALUMET HARBOR             52     330/  8/ 14 1014.9R
MICHIGAN CITY              52     350/ 22/ 29   N/A
$$

ILZ025>027-034>036-040-047-049-050-058-095>099-210800-
WEST-CENTRAL ILLINOIS

CITY           SKY/WX    TMP DP  RH WIND       PRES   REMARKS
QUINCY         CLEAR     47  42  83 NW7       30.04R
GALESBURG*     CLEAR     41  39  93 CALM      30.04S
MACOMB*        CLEAR     44  41  88 NE5       30.06S
JACKSONVILLE*  CLEAR     48  43  82 NW5       30.03R
PITTSFIELD*    CLEAR     48  43  82 W6        30.04R
$$

ILZ028>032-037-038-041>044-048-051>054-059>061-210800-
CENTRAL ILLINOIS

CITY           SKY/WX    TMP DP  RH WIND       PRES   REMARKS
PONTIAC        PTCLDY    46  45  93 NW3       30.02R
BLOOMINGTON    CLEAR     44  42  93 N5        30.03R
DECATUR        CLEAR     45  42  89 NE6       30.02R
PEORIA         CLEAR     47  42  83 CALM      30.04R
LACON*         CLEAR     39  38  94 CALM      30.03S
LINCOLN*       CLEAR     47  43  85 N3        30.01S
SPRINGFIELD    CLEAR     45  43  93 N3        30.02R
TAYLORVILLE    CLEAR     45  43  93 CALM      30.02R
$$

ILZ033-039-045-046-055>057-062-063-210800-
EAST-CENTRAL ILLINOIS

CITY           SKY/WX    TMP DP  RH WIND       PRES   REMARKS
CHAMPAIGN      CLEAR     46  44  93 MISG      30.01R
DANVILLE*      CLOUDY    49  47  94 NW3       29.98R
RANTOUL*       MOCLDY    46  43  89 NW3       30.01S FOG
MATTOON        CLEAR     47  42  83 N3        30.00R
PARIS*         MOCLDY    47  46  95 CALM      30.01R
$$

ILZ079-100>102-210800-
SOUTHWEST ILLINOIS

CITY           SKY/WX    TMP DP  RH WIND       PRES   REMARKS
ALTON          CLEAR     49  44  84 CALM      30.02S
BELLEVILLE     CLEAR     46  44  95 W2        30.01S
CAHOKIA*       CLEAR     46  44  93 CALM      30.03R
SPARTA*        CLEAR     52  44  73 W5        30.03S
$$

ILZ064>066-069>071-074>076-080>082-084>086-088>090-092>094-210800-
SOUTH-CENTRAL ILLINOIS

CITY           SKY/WX    TMP DP  RH WIND       PRES   REMARKS
CARBONDALE     CLEAR     46  44  93 CALM      30.02S
CAIRO*         FOG       49  46  91 CALM      30.03S VSB 1/4
EFFINGHAM*     CLEAR     44  42  89 CALM      30.01R
MARION         CLEAR     50  46  87 S3        30.02S
MT. VERNON     CLEAR     45  39  81 CALM      30.01S
CENTRALIA*     CLEAR     47  42  85 CALM      30.01R
SALEM*         CLEAR     51  47  86 CALM      30.01S
METROPOLIS*    CLEAR     49  49 100 CALM      30.01S
$$

ILZ067-068-072-073-078-083-087-091-210800-
SOUTHEAST ILLINOIS

CITY           SKY/WX    TMP DP  RH WIND       PRES   REMARKS
LAWRENCEVILLE  CLEAR     47  44  90 NW5       30.00R
FLORA*         CLEAR     46  43  88 NW3       30.01R
FAIRFIELD*     CLEAR     45  44  96 CALM      29.99S
HARRISBURG*    CLEAR     46  44  93 CALM      30.02S
ROBINSON*      CLEAR     48  45  90 CALM      30.01R
CARMI*         CLEAR     48  46  93 W3        30.00S
$$

ABBREVIATIONS USED IN REMARKS
   TC - TEMPERATURE IN CELSIUS
  WCI - WIND CHILL INDEX
   HX - HEAT INDEX
  VSB - VISIBILITY
$$




USA.gov is the U.S. government's official web portal to all federal, state and local government web resources and services.